Regional Weather Roundup
Issued by NWS

Home | Current Version | Previous Version | Text Only | Print | Product List | Glossary On
Versions: 1 2 3 4 5 6 7 8 9 10 11 12 13 14 15 16 17 18 19 20 21 22 23 24 25 26 27 28 29 30 31 32 33 34 35 36 37 38 39 40 41 42 43 44 45 46 47 48 49 50
000
ASUS43 KMKX 310621
RWRWI

WISCONSIN REGIONAL WEATHER ROUNDUP
NATIONAL WEATHER SERVICE MILWAUKEE/SULLIVAN WI
100 AM CDT TUE MAY 31 2016

NOTE: "FAIR" INDICATES FEW OR NO CLOUDS BELOW 12,000 FEET WITH NO
SIGNIFICANT WEATHER AND/OR OBSTRUCTIONS TO VISIBILITY.

WIZ001-002-006>008-014>016-023>028-310700-
NORTHWEST WISCONSIN

CITY           SKY/WX    TMP DP  RH WIND       PRES   REMARKS
SUPERIOR ARPT  CLOUDY    49  44  85 NE18G26   29.99S
6HR MIN TEMP:  49; 6HR MAX TEMP:  66;

ASHLAND        CLOUDY    53  45  74 NE16      30.02F
6HR MIN TEMP:  53; 6HR MAX TEMP:  74; 6HR PCP: TRACE;

HAYWARD        CLOUDY    61  50  67 NE8       29.97F
6HR MIN TEMP:  58; 6HR MAX TEMP:  77;

SIREN          CLOUDY    66  54  64 CALM      29.91F
6HR MIN TEMP:  61; 6HR MAX TEMP:  80;

CUMBERLAND     CLOUDY    63  54  72 E5        29.93F
RICE LAKE      CLOUDY    67  55  63 SE8       29.94F
CHETEK         CLOUDY    65  57  75 SE7       29.94F
6HR MIN TEMP:  65; 6HR MAX TEMP:  78;

LADYSMITH      CLOUDY    62  56  81 E5        29.98F
6HR MIN TEMP:  58; 6HR MAX TEMP:  78;

EAU CLAIRE     CLOUDY    68  55  63 S9        29.94S
6HR MIN TEMP:  64; 6HR MAX TEMP:  79; 6HR PCP:  0.01;

MENOMONIE      MOCLDY    67  55  65 E7        29.94S
6HR MIN TEMP:  67; 6HR MAX TEMP:  79;

NEW RICHMOND   CLOUDY    68  51  54 SE6       29.91F
6HR MIN TEMP:  68; 6HR MAX TEMP:  79;

OSCEOLA        PTCLDY    69  53  55 SE7       29.93F
6HR MIN TEMP:  68; 6HR MAX TEMP:  80;

$$

WIZ003>005-009-010-017-018-310700-
NORTH CENTRAL WISCONSIN

CITY           SKY/WX    TMP DP  RH WIND       PRES   REMARKS
MANITOWISH WTR NOT AVBL
ARBOR VITAE    CLOUDY    62  49  61 NE5       30.02S
6HR MIN TEMP:  59; 6HR MAX TEMP:  77;

WOODRUFF       CLOUDY    62  49  61 NE5       30.02S
6HR MIN TEMP:  59; 6HR MAX TEMP:  77;

RHINELANDER    CLOUDY    60  46  59 E5        30.02R
6HR MIN TEMP:  57; 6HR MAX TEMP:  75; 6HR PCP: TRACE;

EAGLE RIVER      N/A     57  46  65 E9        30.03S
LAND O LAKES   CLOUDY    57  48  71 NE6       30.06R
6HR MIN TEMP:  55; 6HR MAX TEMP:  74;

PHILLIPS       PTCLDY    56  53  88 CALM      29.99S
6HR MIN TEMP:  55; 6HR MAX TEMP:  75;

TOMAHAWK       CLOUDY    54  52  95 CALM      30.01S
6HR MIN TEMP:  53; 6HR MAX TEMP:  75;

MEDFORD        CLOUDY    60  55  82 CALM      29.98F
6HR MIN TEMP:  57; 6HR MAX TEMP:  75;

MERRILL        CLOUDY   N/A N/A N/A CALM      30.00S
$$

WIZ029-030-035-036-043>047-310700-
CENTRAL WISCONSIN

CITY           SKY/WX    TMP DP  RH WIND       PRES   REMARKS
WAUSAU         CLOUDY    61  55  81 E5        29.98R
6HR MIN TEMP:  60; 6HR MAX TEMP:  77;

MOSINEE        CLOUDY    59  52  77 SE3       30.00S
MARSHFIELD     PTCLDY    65  51  60 CALM      29.97F
6HR MIN TEMP:  64; 6HR MAX TEMP:  79;

STEVENS POINT  PTCLDY    56  53  90 CALM      30.00S
6HR MIN TEMP:  56; 6HR MAX TEMP:  76;

WAUPACA        CLOUDY    61  59  94 CALM      29.99S
6HR MIN TEMP:  61; 6HR MAX TEMP:  80;

WAUTOMA        CLOUDY   N/A N/A N/A CALM      29.99S
WISC RAPIDS    CLOUDY    63  50  62 SE7       29.99F
6HR MIN TEMP:  60; 6HR MAX TEMP:  80;

CAMP DOUGLAS   NOT AVBL
$$

WIZ011>013-019>022-031-037>040-048>050-310700-
NORTHEAST WISCONSIN

CITY           SKY/WX    TMP DP  RH WIND       PRES   REMARKS
ANTIGO         PTCLDY    56  54  95 CALM      30.02R
6HR MIN TEMP:  55; 6HR MAX TEMP:  73;

SHAWANO        CLOUDY    64  57  80 NE9       30.00R
6HR MIN TEMP:  59; 6HR MAX TEMP:  80;

OCONTO         PTCLDY    61  55  80 NE6       30.01R
6HR MIN TEMP:  57; 6HR MAX TEMP:  78;

STURGEON BAY   NOT AVBL
GREEN BAY      MOCLDY    64  56  75 S5        29.99R
6HR MIN TEMP:  62; 6HR MAX TEMP:  80;

MANITOWOC      CLOUDY    62  55  77 W3        29.99S
6HR MIN TEMP:  58; 6HR MAX TEMP:  66;

APPLETON       CLOUDY    63  55  77 S3        29.98S
CLINTONVILLE   CLOUDY    59  54  82 CALM      29.99R
OSHKOSH        CLOUDY    64  57  78 S7        29.99R
6HR MIN TEMP:  62; 6HR MAX TEMP:  76;

$$

WIZ032>034-041-042-053>061-310700-
SOUTHWEST WISCONSIN

CITY           SKY/WX    TMP DP  RH WIND       PRES   REMARKS
LA CROSSE      LGT RAIN  68  60  75 S13       29.99R
6HR MIN TEMP:  67; 6HR MAX TEMP:  81; 6HR PCP:  0.05;

SPARTA         LGT RAIN  64  59  85 S3        30.02R
6HR MIN TEMP:  64; 6HR MAX TEMP:  80; 6HR PCP:  0.22;

VIROQUA        CLOUDY    64  60  86 SW5       30.02F
6HR MIN TEMP:  64; 6HR MAX TEMP:  79; 6HR PCP:  0.17;

BOSCOBEL       LGT RAIN  65  61  87 W5        30.01R
6HR MIN TEMP:  65; 6HR MAX TEMP:  80; 6HR PCP:  0.01;

PRAIRIE DU CHI RAIN      62  61  96 NW5       30.00F
6HR MIN TEMP:  62; 6HR MAX TEMP:  81; 6HR PCP:  0.29;

PLATTEVILLE    CLOUDY    69  57  66 W3        29.99S
6HR MIN TEMP:  69; 6HR MAX TEMP:  80;

$$

WIZ056-057-062-063-064-067-068-310700-
SOUTH CENTRAL WISCONSIN

CITY           SKY/WX    TMP DP  RH WIND       PRES   REMARKS
REEDSBURG      CLOUDY    64  56  78 CALM      29.97S
6HR MIN TEMP:  61; 6HR MAX TEMP:  78;

BARABOO/DELLS  CLOUDY    64  53  65 E5        29.97S
6HR MIN TEMP:  64; 6HR MAX TEMP:  80;

LONE ROCK      CLOUDY    69  56  62 CALM      29.99R
6HR MIN TEMP:  65; 6HR MAX TEMP:  81;

MINERAL POINT  CLOUDY    70  50  49 CALM      30.01S
MADISON        CLOUDY    68  57  68 SE8       29.97F
6HR MIN TEMP:  64; 6HR MAX TEMP:  79;

MIDDLETON      CLOUDY    68  57  69 SE5       29.98F
6HR MIN TEMP:  62; 6HR MAX TEMP:  79;

WATERTOWN      PTCLDY    63  57  81 SE5       29.99S
6HR MIN TEMP:  62; 6HR MAX TEMP:  78;

MONROE         CLOUDY    66  54  63 SE8       29.98S
JANESVILLE     MOCLDY    64  55  72 E6        29.98S
$$

WIZ051-052-058>065-066-070>072-310700-
SOUTHEAST WISCONSIN

CITY           SKY/WX    TMP DP  RH WIND       PRES   REMARKS
MILWAUKEE      CLOUDY    61  55  81 CALM      30.00F
6HR MIN TEMP:  60; 6HR MAX TEMP:  70;

WAUKESHA       CLEAR     55  52  88 CALM      30.01S
MILWAUKEE/TIMM CLEAR     61  52  72 CALM      30.01S
RACINE         CLOUDY    61  56  83 CALM      30.01F
6HR MIN TEMP:  59; 6HR MAX TEMP:  70;

BURLINGTON     CLEAR     59  55  85 CALM      30.00S
6HR MIN TEMP:  59; 6HR MAX TEMP:  76;

KENOSHA        CLEAR     59  55  87 SE5       30.00S
6HR MIN TEMP:  58; 6HR MAX TEMP:  74;

FOND DU LAC    PTCLDY    63  58  83 S6        29.99S
6HR MIN TEMP:  63; 6HR MAX TEMP:  80;

SHEBOYGAN      CLOUDY    59  56  89 CALM      30.00S
6HR MIN TEMP:  57; 6HR MAX TEMP:  73;

WEST BEND      CLOUDY    57  55  94 CALM      30.01S
JUNEAU         CLOUDY    64  57  78 E6        30.00F
6HR MIN TEMP:  62; 6HR MAX TEMP:  77;

$$

LSZ147-162-310700-
LAKE SUPERIOR

STATION/POSITION TIME  TEMP    WIND        PRES    WAVE
                       AIR SEA DIR/SP/G            HT/PER
                 (UTC) (F)     (DEG/KT/KT) (MB)    (FT/S)
W MID LAKE BUOY  0550   42 38   70/ 16/ 17 1018.7F   2/ 4
DEVILS ISLAND    0600   46      80/ 25/ 28 1018.1F
SAXON HARBOR     0500   54      60/ 17/ 20 1016.3F
$$

LMZ867-665-643>646-310700-
LAKE MICHIGAN

STATION/POSITION TIME  TEMP    WIND        PRES    WAVE
                       AIR SEA DIR/SP/G            HT/PER
                 (UTC) (F)     (DEG/KT/KT) (MB)    (FT/S)
CHAMBERS ISLAND  0500   60      10/ 18/ 21 1016.3S
N MID LAKE BUOY  0550   53 50   10/ 14/ 16 1016.1F   1
NORTHPORT PIER   0500   59      10/ 14/ 18 1016.3R
KEWAUNEE LAKESHO 0500   60     150/  2/  5 1014.6F
SHEBOYGAN LAKESH 0600   65     220/  5/  6 1016.0S
PORT WASHINGTON  0500   59     260/  1/  2 1016.6
S MID LAKE BUOY  0550   61 57  130/  4/  4 1015.5F   0
KENOSHA   LAKESH 0600   63C1F1C2F2C3F3C4F4C5F5C6F6C7F7C8M1C9M2Ca!


USA.gov is the U.S. government's official web portal to all federal, state and local government web resources and services.